www.pogodaiklimat.ru

Погода и климат >> Архив погоды >> Канада >> Arviat


ПОГОДА в Arviat

  • Прогноз погоды в Arviat
  • Монитор погоды в Arviat
  • Климат города

АРХИВ ПОГОДЫ в Arviat

Время (UTC), дата Ветер
(напр.,м/с)
 
Видим.   Явления Облачность Т
(С)
Тd
(С)
f
(%)
Тe
(С)
Тes
(С)
Комфортность P
(гПа)
Po
(гПа)
Тmin
(С)
Tmax
(С)
R
(мм)
R24
(мм)
S
(см)
18 12.02 СВ 2 16 км ясно -8.1 -14.8 58 -11 -10 1034.2 1005.6 -10.2 -3.3
21 12.02 СЗ 2 16 км ясно -2.8 -13.8 42 -5 -5 1030.8 1002.4
00 13.02 С 1 16 км ясно -1.9 -14.1 39 -2 -2 1028.5 1000.1 -10.2 -0.8
03 13.02 С 1 16 км 3/0
[]
-4.1 -12.2 53 -6 -6 1029.5 1001.0
06 13.02 В 1 16 км 3/0
[]
-4.5 -12.4 54 -5 -5 1029.0 1000.5 -10.2 -0.8 11
09 13.02 Ю 1 16 км ясно -5.6 -11.4 64 -8 -8 1028.5 1000.2
12 13.02 СВ 1 16 км 9/0
[]
-6.2 -10.7 70 -8 -8 1026.7 998.4 -6.8 -0.8
15 13.02 С 4 16 км 9/0
[]
-4.9 -10.4 65 -11 -11 1023.6 995.4
18 13.02 С 2 16 км 9/0
[]
-2.8 -9.8 59 -6 -6 1020.8 992.7 -8.2 -2.8
21 13.02 СЗ 2 16 км ясно +1.2 -9.0 47 -2 -1 1017.2 989.3
00 14.02 Ю 10 16 км ясно +7.2 -8.9 31 +3 +3 1011.8 984.2 -6.8 +7.5
03 14.02 Ю 11 16 км 10/0 2000 м
[]
+5.7 -6.5 41 0 0 1010.7 983.1
06 14.02 Ю 10 16 км 10/10 1500 м
[]
+2.2 -1.7 75 -5 -5 1011.8 984.1 -6.8 +7.5 42
09 14.02 Ю 9 16 км 10/0 2000 м
[]
+2.2 -1.7 75 -5 -5 1011.9 984.4
12 14.02 С 1 16 км 10/10 1000 м
[]
+0.7 -2.9 77 -1 -1 1013.9 986.4 +0.7 +7.5
15 14.02 С 3 16 км 10/0
[]
-0.7 -3.1 84 -6 -5 1015.9 988.3
18 14.02 С 1 16 км 10/10 300 м
[]
+1.3 -2.1 78 -0 -0 1018.1 990.4 -2.8 +2.4
21 14.02 СЗ 1 16 км 3/0 2000 м
[]
+7.1 -2.2 52 +7 +7 1016.6 989.1
00 15.02 Ю 2 16 км ясно +5.2 -4.0 51 +3 +3 1016.8 989.2 -1.3 +8.3
03 15.02 Ю 1 16 км 10/0
[]
+1.7 -2.7 73 +2 +2 1019.6 991.8
06 15.02 В 1 16 км 10/0
[]
+0.7 -0.0 95 -1 -1 1023.4 995.5 -1.3 +8.3 71
09 15.02 С 1 2800 м дымка 10/10 100 м
[]
-1.3 -1.4 99 -4 -4 1026.7 998.8
12 15.02 В 1 4800 м дымка 9/9 50 м
[]
-2.2 -2.2 100 -5 -5 1029.0 1001.0 -2.2 +8.3
15 15.02 С 2 16 км ясно -4.6 -5.2 96 -8 -8 1031.8 1003.5
18 15.02 СВ 1 16 км ясно -2.0 -8.1 63 -2 0 1032.2 1004.0 -4.7 +0.7
21 15.02 З 2 16 км ясно +2.2 -8.1 46 0 +1 1027.7 999.7
00 16.02 ЮЗ 3 16 км 10/0
[]
+4.1 -5.0 51 +1 +1 1026.4 998.4 -4.7 +4.2
03 16.02 Ю 5 16 км 5/0 2000 м
[]
+3.6 -3.4 60 -1 -1 1026.3 998.2
06 16.02 С 2 16 км 10/0
[]
-0.6 -7.6 59 -3 -3 1025.6 997.5 -4.7 +4.4 0
09 16.02 Ю 4 16 км 10/10 1500 м
[]
+2.9 -2.0 70 -2 -2 1023.4 995.6
12 16.02 Ю 2 16 км слаб. дождь 10/10 300 м
[]
+1.8 -1.4 79 -1 -1 1019.9 992.2 -1.1 +4.4
15 16.02 С 2 16 км 10/10 1500 м
[]
-1.3 -5.5 73 -4 -4 1018.8 991.0
18 16.02 С 3 16 км 5/5 1500 м
[]
+2.9 -2.2 69 -1 -0 1017.3 989.6 -2.0 +4.6
21 16.02 Ю 1 16 км {осадки} 10/10 1500 м
[]
+2.1 +0.6 90 0 0 1020.6 992.9
00 17.02 Ю 4 16 км {осадки} ясно +3.1 -0.2 79 -2 -2 1019.9 992.2 -1.5 +5.3 0.5
03 17.02 С 1 16 км ясно 0.0 -0.8 94 -1 -1 1021.6 993.7
06 17.02 СВ 1 6000 м дымка 10/10 100 м
[]
-1.2 -1.5 98 -2 -2 1020.1 992.3 -1.5 +5.3 20
09 17.02 СВ 1 16 км слаб. снег 10/10 300 м
[]
-0.7 -1.4 95 -2 -2 1017.9 990.1
12 17.02 Ю 2 16 км слаб. снег 10/10 600 м
[]
-1.0 -1.3 98 -4 -4 1014.0 986.4 -1.3 +5.3
15 17.02 С 1 1600 м слаб. снег 10/10 50 м
[]
-2.0 -2.3 98 -4 -4 1006.9 979.3
18 17.02 С 2 2000 м слаб. снег 10/10 300 м
[]
-1.7 -3.0 91 -6 -6 1002.1 974.6 -2.1 -0.5
21 17.02 С 3 500 м снег 10/10 200 м
[]
-1.5 -2.5 93 -6 -6 999.4 972.0
00 18.02 С 2 16 км слаб. снег 10/10 1500 м
[]
-1.1 -2.1 93 -4 -4 1002.4 975.0 -2.1 -1.0
03 18.02 С 1 16 км 10/10 1500 м
[]
-1.4 -2.8 90 -4 -4 1004.3 976.8
06 18.02 С 5 12 км слаб. снег 10/10 1500 м
[]
-1.3 -8.3 59 -7 -7 1007.0 979.4 -2.1 -0.5 6
09 18.02 С 6 16 км 10/10 1500 м
[]
-3.7 -11.2 56 -10 -10 1011.2 983.4
12 18.02 С 6 16 км 10/0 2000 м
[]
-5.7 -13.6 54 -13 -13 1014.5 986.6 -5.7 -0.5
15 18.02 С 6 16 км 10/0 2000 м
[]
-7.0 -14.8 54 -15 -15 1017.5 989.5
18 18.02 С 6 16 км 9/0 2000 м
[]
-6.1 -16.0 45 -14 -13 1020.0 991.9 -7.4 -1.3
21 18.02 С 10 9000 м слаб. снег 5/0 2000 м
[]
-3.9 -16.7 36 -12 -12 1020.5 992.4
00 19.02 С 6 16 км 10/0 2000 м
[]
-4.1 -15.3 41 -11 -11 1021.4 993.2 -7.4 -3.4
03 19.02 С 7 16 км 10/0 2000 м
[]
-4.7 -14.8 45 -12 -12 1023.4 995.1
06 19.02 С 6 16 км 10/0 2000 м
[]
-5.2 -15.6 44 -12 -12 1024.1 995.8 -7.4 -1.3 211
09 19.02 СВ 6 16 км ясно -7.3 -15.6 51 -15 -15 1025.6 997.2
12 19.02 С 3 16 км ясно -10.0 -15.0 67 -16 -16 1027.2 998.7 -10.0 -1.3
15 19.02 С 3 16 км ясно -11.6 -15.7 72 -17 -17 1028.3 999.7

 

Местоположение метеостанции Arviat (Канада): широта 61.10 долгота -94.06 высота над уровнем моря 10 м.

В архиве по умолчанию представлена погода в Arviat за последнюю неделю. Архивные данные за месяц целиком и за предыдущие месяцы, начиная с января 2011 года, Вы можете получить, выбрав интересующий диапазон дат из раскрывающегося списка и нажав кнопку "Ввод!".

Внимание! Время в таблицах - всемирное. Для получения местного времени необходимо прибавить поправку, которая в Arviat равна -6 ч.

Смотрите также архив погоды в соседних городах и на ближайших метеорологических станциях:

Погода в Arviat Airport (Канада) (1 км)
Погода в Rankin Inlet (Канада) (217 км)
Погода в Churchill Climate (Канада) (265 км)
Погода в Tadoule Lake (Канада) (362 км)
Погода в Baker Lake Airport (Канада) (370 км)
Погода в Baker Lake Climate (Канада) (372 км)
Погода в Dubawnt Lake (Канада) (462 км)
Погода в Gillam (Канада) (530 км)
Погода в Back River MAPS (Канада) (567 км)
Погода в Wager Bay (Канада) (579 км)

Пояснения к столбцам:

Ветер - указаны скорость ветра в м/с - средняя за 10 мин, порывы в срок и между сроками (в фигурных скобках) и направление, откуда дует ветер: С - северный, СВ - северо-восточный, В - восточный, ЮВ - юго-восточный, Ю - южный, ЮЗ - юго-западный, З - западный, СЗ - северо-западный.
Видимость - горизонтальная дальность видимости в метрах или километрах. При видимости от 1 до 10 км при отсутствии осадков обычно наблюдается дымка, при ухудшении видимости до 1 км и менее - туман. В сухую погоду видимость может ухудшаться дымом, пылью или мглою.
Явления - указаны атмосферные явления, наблюдавшиеся в срок или в последний час перед сроком; фигурными скобками обозначены явления, наблюдавшиеся между сроками (за 1-3 часа до срока); квадратными скобками обозначены град или гололедные отложения с указанием их диаметра в мм.
Облачность - указаны через наклонную черту общая и нижняя облачность в баллах и высота нижней границы облаков в метрах; квадратными скобками обозначены формы облаков: Ci - перистые, Cs - перисто-слоистые, Cc - перисто-кучевые, Ac - высококучевые, As - высокослоистые, Sc - слоисто-кучевые, Ns - слоисто-дождевые, Cu - кучевые, Cb - кучево-дождевые. Подробнее классификацию облаков см. в Атласе облаков (PDF).
T - Температура воздуха - температура, измеренная на высоте 2 м над землей.
Td - Температура точки росы - температура, при понижении до которой содержащийся в воздухе водяной пар достигнет насыщения.
f - Относительная влажность воздуха - влажноcть воздуха, измеренная на высоте 2 м над землей.
Te - Эффективная температура - температура, которую ощущает одетый по сезону человек в тени. Характеристика душности погоды. При расчете учитывается влияние влажности воздуха и скорости ветра на теплоощущения человека.
Tes - Эффективная температура на солнце - температура, которую ощущает человек, с поправкой на солнечный нагрев. Характеристика знойности погоды. Зависит от высоты солнца над горизонтом, облачности и скорости ветра. Ночью, в пасмурную погоду, а также при ветре 12 м/с и более поправка равна нулю.
P - Атмосферное давление - приведенное к уровню моря атмосферное давление.
Po - Атмосферное давление - измеренное на уровне метеостанции атмосферное давление.
Tmin - Минимальная температура - минимум температуры воздуха на высоте 2 м над землей.
Tmax - Максимальная температура - максимум температуры воздуха на высоте 2 м над землей.
R - Количество осадков - Количество выпавших осадков за период времени, мм. При наведении курсора мыши на число - период времени, за который выпало указанное количество осадков.
R24 - Количество осадков - Количество выпавших осадков за 24 часа, мм.
S - Снежный покров - Высота снежного покрова, см. При наведении курсора мыши на число - состояние снежного покрова и степень покрытия местности в баллах.